| time (UTC) | temp F | wind direction | speed knots | gust knots | rain 1hr in | rain 24hr in | rain mn in | humidity % | barometer mb |
| 20260507161524 | 54 | 71 | 3.5 | 10.4 | 0.20 | 1.12 | 1.12 | 91 | 1011.4 |
| 20260507160027 | 54 | 58 | 5.2 | 12.2 | 0.20 | 1.05 | 1.05 | 91 | 1011.4 |
| 20260507154518 | 54 | 55 | 5.2 | 12.2 | 0.18 | 1.03 | 1.03 | 90 | 1011.2 |
| 20260507153024 | 54 | 61 | 3.5 | 10.4 | 0.15 | 0.99 | 0.99 | 90 | 1011.2 |
| 20260507151524 | 54 | 14 | 3.5 | 11.3 | 0.08 | 0.92 | 0.92 | 89 | 1011.8 |
| 20260507150033 | 54 | 352 | 5.2 | 15.6 | 0.02 | 0.86 | 0.86 | 87 | 1012.0 |
| 20260507144511 | 55 | 33 | 5.2 | 12.2 | 0.01 | 0.85 | 0.85 | 87 | 1011.5 |
| 20260507143019 | 55 | 22 | 4.3 | 13.0 | 0.00 | 0.84 | 0.84 | 86 | 1011.5 |
| 20260507141523 | 56 | 9 | 6.1 | 14.8 | 0.00 | 0.84 | 0.84 | 89 | 1011.2 |
| 20260507140036 | 57 | 30 | 5.2 | 15.6 | 0.01 | 0.84 | 0.84 | 90 | 1011.0 |
| 20260507134526 | 58 | 54 | 4.3 | 7.8 | 0.03 | 0.84 | 0.84 | 92 | 1011.1 |
| 20260507133017 | 58 | 75 | 2.6 | 9.6 | 0.03 | 0.84 | 0.84 | 92 | 1010.9 |
| 20260507131534 | 58 | 63 | 3.5 | 9.6 | 0.04 | 0.84 | 0.84 | 91 | 1010.9 |
| 20260507130026 | 59 | 54 | 3.5 | 9.6 | 0.07 | 0.83 | 0.83 | 92 | 1010.9 |
| 20260507124530 | 59 | 74 | 3.5 | 12.2 | 0.07 | 0.81 | 0.81 | 92 | 1011.2 |
| 20260507123035 | 59 | 37 | 3.5 | 10.4 | 0.07 | 0.81 | 0.81 | 92 | 1011.0 |
| 20260507121522 | 59 | 9 | 2.6 | 9.6 | 0.09 | 0.80 | 0.80 | 91 | 1011.1 |
| 20260507120031 | 59 | 31 | 1.7 | 10.4 | 0.06 | 0.76 | 0.76 | 91 | 1011.3 |
| 20260507114527 | 59 | 9 | 2.6 | 10.4 | 0.08 | 0.74 | 0.74 | 90 | 1011.1 |
| 20260507113031 | 60 | 57 | 2.6 | 8.7 | 0.13 | 0.74 | 0.74 | 90 | 1010.8 |
| 20260507111520 | 63 | 345 | 6.1 | 11.3 | 0.20 | 0.71 | 0.71 | 89 | 1010.9 |
| 20260507110021 | 65 | 279 | 0.0 | 7.0 | 0.41 | 0.70 | 0.70 | 91 | 1010.2 |
| 20260507104526 | 65 | 290 | 0.9 | 1.7 | 0.50 | 0.66 | 0.66 | 91 | 1010.0 |
| 20260507103027 | 65 | 284 | 0.9 | 5.2 | 0.45 | 0.61 | 0.61 | 90 | 1009.9 |
| 20260507101522 | 66 | 302 | 1.7 | 2.6 | 0.36 | 0.51 | 0.51 | 89 | 1009.8 |
| 20260507100032 | 66 | 257 | 0.0 | 0.9 | 0.28 | 0.29 | 0.29 | 89 | 1009.8 |
| 20260507094523 | 66 | 315 | 0.0 | 1.7 | 0.15 | 0.16 | 0.16 | 88 | 1009.0 |
| 20260507093028 | 67 | 296 | 0.0 | 1.7 | 0.15 | 0.16 | 0.16 | 87 | 1008.8 |
| 20260507091516 | 67 | 315 | 0.9 | 2.6 | 0.14 | 0.15 | 0.15 | 85 | 1008.9 |
| 20260507090019 | 68 | 266 | 0.9 | 7.0 | 0.00 | 0.01 | 0.01 | 83 | 1009.2 |
| 20260507084543 | 68 | 263 | 0.9 | 6.1 | 0.00 | 0.01 | 0.01 | 82 | 1009.1 |
| 20260507083027 | 68 | 265 | 0.9 | 6.1 | 0.00 | 0.01 | 0.01 | 81 | 1009.3 |
| 20260507081527 | 68 | 236 | 0.9 | 7.8 | 0.00 | 0.01 | 0.01 | 82 | 1009.5 |
| 20260507080019 | 68 | 292 | 0.9 | 6.1 | 0.00 | 0.01 | 0.01 | 82 | 1009.6 |
| 20260507074524 | 68 | 238 | 0.9 | 4.3 | 0.00 | 0.01 | 0.01 | 83 | 1010.0 |
| 20260507073026 | 68 | 257 | 0.9 | 1.7 | 0.01 | 0.01 | 0.01 | 83 | 1009.7 |
| 20260507071532 | 68 | 285 | 1.7 | 2.6 | 0.01 | 0.01 | 0.01 | 82 | 1009.7 |
| 20260507070028 | 68 | 272 | 0.9 | 2.6 | 0.01 | 0.01 | 0.01 | 82 | 1009.8 |
| 20260507064521 | 68 | 352 | 0.0 | 1.7 | 0.01 | 0.01 | 0.01 | 81 | 1009.4 |
| 20260507063024 | 68 | 195 | 1.7 | 7.0 | 0.00 | 0.00 | 0.00 | 81 | 1009.3 |
| 20260507061508 | 68 | 224 | 0.9 | 5.2 | 0.00 | 0.00 | 0.00 | 80 | 1009.9 |
| 20260507060011 | 69 | 257 | 0.9 | 2.6 | 0.00 | 0.00 | 0.00 | 79 | 1010.6 |
| 20260507054523 | 70 | 305 | 0.9 | 6.1 | 0.00 | 0.00 | 0.00 | 77 | 1010.8 |
| 20260507053021 | 70 | 296 | 0.0 | 3.5 | 0.00 | 0.00 | 0.00 | 75 | 1010.9 |
| 20260507051505 | 71 | 240 | 0.9 | 3.5 | 0.00 | 0.00 | 0.00 | 73 | 1010.9 |
| 20260507050031 | 71 | 271 | 0.9 | 5.2 | 0.00 | 0.00 | 0.00 | 71 | 1010.7 |
| 20260507044521 | 72 | 224 | 0.0 | 3.5 | 0.00 | 0.00 | 0.00 | 70 | 1010.4 |
| 20260507043020 | 71 | 282 | 0.9 | 4.3 | 0.00 | 0.00 | 0.00 | 70 | 1010.7 |
| 20260507041504 | 71 | 269 | 0.9 | 3.5 | 0.00 | 0.00 | 0.00 | 70 | 1010.6 |
| 20260507040006 | 71 | 209 | 0.0 | 3.5 | 0.00 | 0.00 | 0.00 | 71 | 1010.5 |
| 20260507034513 | 72 | 284 | 0.0 | 1.7 | 0.00 | 0.00 | 0.00 | 69 | 1010.2 |
| 20260507033024 | 72 | 272 | 0.0 | 1.7 | 0.00 | 0.00 | 0.00 | 69 | 1010.2 |
| 20260507031528 | 72 | 272 | 0.0 | 1.7 | 0.00 | 0.00 | 0.00 | 69 | 1010.1 |
| 20260507030008 | 72 | 235 | 0.0 | 1.7 | 0.00 | 0.00 | 0.00 | 68 | 1010.8 |
| 20260507024516 | 72 | 228 | 0.0 | 1.7 | 0.00 | 0.00 | 0.00 | 68 | 1010.9 |
| 20260507023015 | 72 | 272 | 0.0 | 2.6 | 0.00 | 0.00 | 0.00 | 68 | 1011.0 |
| 20260507021535 | 72 | 235 | 0.9 | 4.3 | 0.00 | 0.00 | 0.00 | 67 | 1010.8 |
| 20260507020027 | 73 | 263 | 0.0 | 5.2 | 0.00 | 0.00 | 0.00 | 66 | 1010.9 |
| 20260507014508 | 73 | 254 | 0.0 | 1.7 | 0.00 | 0.00 | 0.00 | 66 | 1011.0 |
| 20260507013015 | 73 | 241 | 0.0 | 2.6 | 0.00 | 0.00 | 0.00 | 65 | 1010.7 |
| 20260507011527 | 74 | 281 | 0.9 | 1.7 | 0.00 | 0.00 | 0.00 | 64 | 1010.8 |
| 20260507010037 | 74 | 271 | 0.9 | 1.7 | 0.00 | 0.00 | 0.00 | 63 | 1010.9 |
| 20260507004525 | 75 | 284 | 0.9 | 1.7 | 0.00 | 0.00 | 0.00 | 62 | 1010.9 |
| 20260507003010 | 75 | 284 | 0.9 | 1.7 | 0.00 | 0.00 | 0.00 | 61 | 1010.6 |
| 20260507001516 | 76 | 273 | 0.9 | 4.3 | 0.00 | 0.00 | 0.00 | 59 | 1010.5 |
| 20260507000023 | 76 | 240 | 1.7 | 6.1 | 0.00 | 0.00 | 0.00 | 59 | 1010.2 |
| 20260506234524 | 77 | 261 | 0.9 | 3.5 | 0.00 | 0.00 | 0.00 | 57 | 1010.2 |
| 20260506233012 | 77 | 311 | 0.9 | 4.3 | 0.00 | 0.00 | 0.00 | 56 | 1010.0 |
| 20260506231522 | 77 | 250 | 1.7 | 4.3 | 0.00 | 0.00 | 0.00 | 55 | 1009.9 |
| 20260506230018 | 78 | 236 | 0.9 | 2.6 | 0.00 | 0.00 | 0.00 | 55 | 1009.9 |
| 20260506224527 | 78 | 284 | 0.9 | 4.3 | 0.00 | 0.00 | 0.00 | 55 | 1009.9 |
| 20260506223027 | 78 | 223 | 1.7 | 6.1 | 0.00 | 0.00 | 0.00 | 55 | 1010.0 |
| 20260506221516 | 78 | 267 | 1.7 | 6.1 | 0.00 | 0.00 | 0.00 | 55 | 1009.9 |
| 20260506220027 | 78 | 253 | 1.7 | 7.8 | 0.00 | 0.00 | 0.00 | 55 | 1009.9 |
| 20260506214525 | 78 | 241 | 1.7 | 11.3 | 0.00 | 0.00 | 0.00 | 55 | 1009.6 |
| 20260506213030 | 78 | 242 | 2.6 | 8.7 | 0.00 | 0.00 | 0.00 | 55 | 1009.7 |
| 20260506211528 | 78 | 225 | 1.7 | 7.0 | 0.00 | 0.00 | 0.00 | 55 | 1009.6 |
| 20260506210018 | 78 | 260 | 2.6 | 10.4 | 0.00 | 0.00 | 0.00 | 56 | 1009.6 |
| 20260506204531 | 78 | 208 | 2.6 | 7.8 | 0.00 | 0.00 | 0.00 | 55 | 1009.9 |
| 20260506203029 | 78 | 213 | 2.6 | 7.8 | 0.00 | 0.00 | 0.00 | 54 | 1010.2 |
| 20260506201533 | 78 | 277 | 1.7 | 7.8 | 0.00 | 0.00 | 0.00 | 58 | 1010.3 |
| 20260506200017 | 78 | 151 | 1.7 | 9.6 | 0.00 | 0.00 | 0.00 | 60 | 1010.9 |
| 20260506194522 | 78 | 202 | 2.6 | 6.1 | 0.00 | 0.00 | 0.00 | 60 | 1011.0 |
| 20260506193023 | 78 | 252 | 2.6 | 6.1 | 0.00 | 0.00 | 0.00 | 59 | 1011.5 |
| 20260506191528 | 78 | 273 | 3.5 | 10.4 | 0.00 | 0.00 | 0.00 | 60 | 1011.4 |
| 20260506190028 | 77 | 236 | 2.6 | 10.4 | 0.00 | 0.00 | 0.00 | 60 | 1011.5 |
| 20260506184519 | 77 | 191 | 2.6 | 13.0 | 0.00 | 0.00 | 0.00 | 60 | 1011.6 |
| 20260506183023 | 76 | 207 | 4.3 | 17.4 | 0.00 | 0.00 | 0.00 | 60 | 1011.6 |
| 20260506181528 | 76 | 261 | 2.6 | 13.0 | 0.00 | 0.00 | 0.00 | 60 | 1011.8 |
| 20260506180027 | 76 | 274 | 2.6 | 9.6 | 0.00 | 0.00 | 0.00 | 61 | 1012.2 |
| 20260506174528 | 76 | 248 | 5.2 | 13.9 | 0.00 | 0.00 | 0.00 | 61 | 1012.4 |
| 20260506173024 | 75 | 255 | 2.6 | 10.4 | 0.00 | 0.00 | 0.00 | 62 | 1012.7 |
| 20260506171535 | 74 | 271 | 3.5 | 10.4 | 0.00 | 0.00 | 0.00 | 63 | 1013.1 |
| 20260506170027 | 74 | 263 | 3.5 | 11.3 | 0.00 | 0.00 | 0.00 | 64 | 1013.2 |
| 20260506164526 | 73 | 165 | 0.9 | 10.4 | 0.00 | 0.00 | 0.00 | 66 | 1013.1 |
| 20260506163030 | 72 | 299 | 5.2 | 11.3 | 0.00 | 0.00 | 0.00 | 66 | 1013.3 |